Location: Unspecified
(32.7310°N, 0.0000°E)
Time: 18:33:12
(UTC+00:00)

Envisat - Visible Passes

Search period start: 19 May 2019 00:00
Search period end: 29 May 2019 00:00
Orbit: 764 x 766 km, 98.2° (Epoch: 19 May)

Date Brightness Start Highest point End Pass type
(mag) Time Alt. Az. Time Alt. Az. Time Alt. Az.
19 May 5.1 19:24:12 10° SSW 19:28:29 27° W 19:32:47 10° NW visible
21 May 5.7 19:51:26 10° SW 19:54:10 15° W 19:56:56 10° WNW visible
24 May 5.6 19:39:19 10° SW 19:42:52 19° W 19:46:26 10° NW visible
27 May 5.3 19:27:27 10° SSW 19:31:33 25° W 19:35:41 10° NW visible
